Hourly Data Report for October 17, 2016

All times are specified in Local Standard Time (LST). Add 1 hour to adjust for Daylight Saving Time where and when it is observed.

WINNIPEG A CS
MANITOBA

49°55'00.000" N
97°14'58.000" W
238.70 m
502S001
71849
XWG

Download Data

Hourly Data (October 2016)
Hourly Data Report for October 17, 2016
Temp Definition
°C
Dew Point Temp Definition
°C
Rel Hum Definition
%
Wind Dir Definition
10's deg

Wind Spd Definition
km/h
Visibility Definition
km
Stn Press Definition
kPa
Hmdx Definition


Wind Chill Definition


Weather Definition


TIME
00:00 10.1 7.7 85 17 25   96.52     LegendNANA
01:00 9.6 7.4 86 19 21   96.51     LegendNANA
02:00 9.2 7.2 87 21 14   96.48     LegendNANA
03:00 9.2 7.2 87 21 16   96.48     LegendNANA
04:00 8.1 6.6 91 19 19   96.51     LegendNANA
05:00 7.8 6.3 90 20 17   96.53     LegendNANA
06:00 7.7 5.8 88 21 17   96.64     LegendNANA
07:00 6.9 4.9 87 22 18   96.63     LegendNANA
08:00 7.9 4.9 82 24 20   96.67     LegendNANA
09:00 10.3 5.6 73 24 22   96.68     LegendNANA
10:00 11.6 6.4 71 27 26   96.76     LegendNANA
11:00 12.7 7.4 70 27 25   96.75     LegendNANA
12:00 12.8 6.8 67 26 18   96.82     LegendNANA
13:00 13.8 7.8 67 25 14   96.83     LegendNANA
14:00 14.1 7.2 63 26 14   96.83     LegendNANA
15:00 14.1 7.6 65 27 16   96.83     LegendNANA
16:00 13.3 7.9 70 30 17   96.87     LegendNANA
17:00 10.9 7.2 78 30 15   96.97     LegendNANA
18:00 8.1 6.1 87 30 11   97.05     LegendNANA
19:00 8.3 6.4 88 28 14   97.11     LegendNANA
20:00 7.3 5.3 87 30 15   97.15     LegendNANA
21:00 5.8 4.4 91 30 12   97.19     LegendNANA
22:00 5.3 4.3 93 31 10   97.28     LegendNANA
23:00 4.6 3.8 95 31 9   97.28     LegendNANA

Notes on Data Quality.

Legend

  • E = Estimated
  • M = Missing
  • NA = Not Available
  • ‡ = Partner data that is not subject to review by the National Climate Archives
Date modified: